Lapse_Rate
7.2 7.1 7.2 7.2 7.2 7.1 6.9 6.7 6.7 6.6 6.6 6.5 6.4 6.5 6.5 6.7 6.7 7.2 7.9 7.6 7.8 7.8 7.7 7.7 7.7 7.6 7.6 7.8 7.6 7.8 7.7 7.6 7.8 7.9 8.2 8.0 7.8 7.8 7.8 8.1 8.4 8.5 8.1 7.8 7.8
7.2 7.2 7.2 7.1 7.1 7.2 7.2 7.0 6.8 6.8 6.7 6.7 6.7 6.5 6.6 6.6 6.6 7.1 7.4 7.6 7.7 7.8 7.9 7.8 7.8 7.7 7.8 7.9 7.7 7.7 7.8 7.8 7.8 8.1 8.3 7.9 7.8 7.7 7.9 8.0 8.3 8.6 8.4 7.9 7.7
7.1 7.3 7.3 7.3 7.2 7.2 7.0 7.2 7.1 7.0 6.9 6.8 6.7 6.6 6.5 6.4 6.6 6.9 7.2 7.4 7.6 7.9 7.9 7.9 7.9 7.9 8.0 7.8 7.8 7.7 7.8 7.8 8.0 8.1 8.0 8.2 7.9 7.9 7.9 8.0 8.3 8.2 8.4 8.1 7.4
7.2 7.1 7.2 7.2 7.3 7.3 7.2 7.1 7.1 7.1 6.9 6.9 6.7 6.5 6.5 6.4 6.3 6.8 7.1 7.1 7.5 7.6 7.9 7.9 8.0 8.1 8.0 7.8 7.9 7.7 7.6 7.7 7.9 7.8 7.9 8.0 8.1 8.0 7.7 7.9 8.2 8.1 8.0 7.9 7.5
7.1 7.2 7.1 7.2 7.3 7.2 7.3 7.3 7.2 7.2 7.0 6.8 6.8 6.6 6.4 6.4 6.6 6.3 6.6 7.0 7.2 7.4 7.8 8.0 7.9 8.4 8.1 8.2 7.8 7.7 7.7 7.7 7.8 7.8 7.7 7.8 7.8 8.0 7.4 7.6 8.0 8.0 7.6 7.4 7.3
7.0 7.1 7.1 7.1 7.2 7.3 7.3 7.4 7.3 7.2 7.2 7.0 6.8 6.7 6.5 6.7 6.6 6.3 6.5 6.6 6.9 7.2 7.4 7.8 7.8 8.1 8.1 8.2 8.0 7.7 7.6 7.6 7.3 7.5 7.6 7.5 7.6 7.6 7.3 7.2 7.5 7.7 7.2 7.0 6.9
6.6 7.0 7.1 7.1 7.1 7.2 7.3 7.3 7.2 7.2 7.2 7.2 7.1 6.9 6.8 6.7 6.5 6.5 6.6 6.6 6.7 6.7 7.2 7.5 7.7 7.9 7.9 8.2 8.1 8.0 7.8 7.5 7.5 7.5 7.3 7.2 7.4 7.3 7.3 7.2 7.0 7.3 7.0 6.8 6.8
6.6 6.7 6.8 7.0 7.1 7.1 7.2 7.2 7.2 7.2 7.1 7.1 7.1 7.0 7.1 6.6 6.5 6.5 6.4 6.5 6.6 6.6 6.8 7.4 7.6 7.8 7.8 7.6 8.0 7.8 8.0 7.5 7.3 7.4 7.4 7.2 6.9 6.8 6.8 6.9 6.8 6.6 6.5 6.4 6.2
6.6 6.6 6.7 6.8 7.0 7.2 7.1 7.1 7.1 7.1 7.1 7.1 7.0 7.0 7.1 6.9 6.7 6.3 6.4 6.2 6.4 6.7 6.7 7.0 7.3 7.5 7.4 7.3 7.6 7.5 7.4 7.1 7.3 7.3 7.4 7.2 7.1 6.7 6.6 6.6 6.2 6.2 6.2 6.2 6.2
6.3 6.5 6.6 6.6 6.9 7.2 7.0 7.0 7.0 7.0 7.1 7.0 7.0 7.0 7.0 7.3 7.1 6.8 6.4 6.3 6.3 6.5 6.8 7.1 7.1 7.2 7.2 7.1 6.7 7.0 7.3 7.0 7.6 6.9 7.2 7.4 7.4 7.2 6.9 6.5 6.2 6.0 6.1 6.3 6.3
6.1 6.1 6.4 6.4 6.7 6.9 7.0 6.9 7.0 7.2 7.2 7.0 7.1 7.0 7.0 7.2 7.2 7.1 6.7 6.3 6.6 6.6 6.9 7.2 7.2 6.9 7.4 7.4 7.6 7.7 7.9 7.4 7.4 7.5 7.7 7.6 7.6 7.5 7.1 6.7 6.6 6.3 6.0 6.1 6.3
5.7 5.9 6.2 6.2 6.5 6.5 6.7 6.8 6.7 6.9 7.2 7.0 7.3 7.5 7.0 7.2 7.4 7.2 7.4 7.0 6.9 7.1 7.2 7.2 6.9 7.5 7.6 7.4 7.5 7.6 7.6 8.0 7.9 7.5 7.3 7.4 7.1 6.9 6.7 6.3 5.9 5.7 5.8 6.0 6.1
5.6 5.7 6.0 6.0 6.2 6.3 6.3 6.5 6.7 6.7 6.7 7.8 7.5 7.7 7.3 7.1 7.4 7.3 7.1 7.2 7.1 7.2 7.3 7.3 7.2 7.6 7.6 7.6 7.5 7.4 7.2 7.3 7.8 7.2 6.9 7.4 6.7 6.5 6.2 5.8 5.7 5.6 5.4 5.7 5.9
5.8 5.7 6.0 6.0 6.0 6.1 6.1 6.2 6.3 6.4 6.2 7.3 7.5 7.5 7.5 7.4 7.1 7.4 7.1 6.9 7.1 7.2 7.4 7.2 7.3 7.2 7.7 7.6 7.7 7.4 7.5 7.9 8.3 7.8 6.8 6.8 5.8 6.5 6.3 5.9 5.4 5.4 5.7 6.0 5.7
5.2 5.6 5.5 6.0 6.0 6.1 5.8 5.9 6.0 6.3 3.9 7.2 7.1 7.1 7.1 7.1 7.2 7.5 7.1 6.9 7.0 7.2 7.0 7.4 7.5 7.4 7.3 8.0 7.9 7.5 8.1 8.2 8.4 7.5 7.5 7.3 6.9 6.2 6.3 5.3 5.9 6.2 6.3 6.3 5.7
5.5 5.3 6.0 5.7 6.0 6.2 5.9 5.6 5.8 5.8 4.6 7.2 7.1 7.2 7.1 7.0 7.0 7.0 7.2 6.8 6.8 6.8 6.7 7.0 7.2 7.3 7.2 7.8 7.8 7.7 8.0 8.0 7.2 6.8 6.8 6.7 6.7 6.1 6.1 7.4 7.1 6.3 6.8 6.6 6.1
5.1 5.6 5.9 6.0 5.9 6.0 5.9 5.5 5.4 5.4 6.9 7.3 7.4 7.3 7.2 7.1 7.2 6.9 6.9 6.8 6.7 6.7 6.6 6.8 7.1 7.3 7.2 7.2 7.4 8.1 7.9 6.3 6.6 6.0 5.0 6.8 6.5 6.5 7.2 7.4 7.7 7.9 7.2 6.8 6.2
5.0 5.6 5.9 6.0 5.9 5.9 5.7 5.3 5.1 6.1 7.1 7.2 7.2 7.0 7.2 7.3 7.4 7.2 6.7 6.7 6.8 6.7 6.7 6.9 7.0 7.3 7.4 7.3 7.3 7.5 7.5 6.1 5.9 5.0 4.8 6.6 5.3 5.5 7.4 8.0 7.3 6.8 6.7 6.6 6.2
5.1 5.5 5.7 6.0 6.1 5.8 5.6 5.0 6.0 6.3 6.5 6.8 7.2 7.0 7.3 7.3 7.3 7.3 7.0 6.8 7.0 6.9 6.5 7.0 7.1 7.4 7.4 7.6 7.8 7.8 7.3 7.6 8.1 7.5 7.5 7.3 6.6 6.4 6.7 7.0 7.1 6.9 6.7 6.6 6.4
5.4 5.6 5.7 5.9 6.0 5.7 5.3 5.7 6.0 6.3 6.3 6.1 6.2 7.0 7.1 7.6 7.4 7.2 7.1 7.3 7.2 7.1 7.0 7.1 7.1 7.4 7.6 8.2 7.8 8.2 7.5 7.5 8.3 7.5 6.4 6.3 6.4 6.7 6.5 6.9 7.2 7.4 7.4 6.9 6.3
5.4 5.5 5.6 5.7 5.9 5.6 5.2 5.3 5.9 6.2 6.1 6.2 6.2 6.1 6.7 7.0 7.0 7.3 7.4 7.6 7.8 7.8 7.5 7.3 7.1 7.2 7.5 7.8 8.0 8.0 7.6 7.8 8.3 8.1 7.4 6.4 6.3 6.9 7.1 7.7 7.7 7.9 8.1 7.7 7.1
5.5 5.5 5.7 5.7 5.2 4.3 4.5 4.9 5.5 6.0 5.8 5.7 5.8 5.8 6.0 6.1 6.4 6.8 7.1 7.6 7.9 7.8 7.7 7.4 7.6 7.3 7.5 7.7 7.8 7.7 7.8 7.9 8.1 7.7 7.5 7.4 7.0 7.6 7.5 7.9 7.9 8.1 8.3 7.8 7.2
5.3 5.5 5.5 5.6 4.8 4.5 4.5 4.6 4.9 5.0 5.4 5.5 5.3 5.6 5.9 6.0 5.7 6.4 6.8 7.2 7.6 7.8 7.7 8.1 7.5 7.5 7.5 7.8 7.6 7.6 7.6 7.7 8.1 8.0 7.9 6.9 6.9 8.0 7.8 7.3 7.4 7.7 8.0 7.9 7.3
4.8 5.0 5.3 5.2 4.6 4.4 4.5 4.9 5.2 5.3 5.4 5.3 5.1 5.2 5.6 5.9 5.9 5.8 5.9 6.8 7.4 7.7 8.1 7.7 8.1 7.8 7.3 7.8 7.7 7.4 7.4 7.6 8.0 7.7 7.6 7.3 7.4 7.5 7.8 8.1 8.1 8.0 7.9 7.6 7.1
4.2 4.0 4.4 5.2 4.6 4.5 4.4 4.5 4.6 5.0 5.1 4.7 5.5 4.8 4.6 5.1 5.6 5.5 5.7 6.6 7.0 7.2 7.8 8.0 7.5 7.6 7.4 7.6 7.9 8.1 8.3 8.1 8.1 7.7 7.4 7.1 7.3 7.6 7.8 8.2 8.4 8.7 8.0 7.1 7.1
3.8 4.0 4.3 4.7 4.6 4.8 4.7 4.5 4.3 4.2 4.1 5.1 4.4 5.1 4.5 4.2 4.1 5.1 5.0 5.4 6.6 7.1 7.2 7.3 7.3 7.7 7.8 7.7 7.8 8.0 8.2 8.1 7.7 7.7 7.4 7.2 7.5 7.5 7.9 7.9 7.9 8.3 8.3 7.7 7.4
4.0 3.7 3.9 4.6 4.8 4.7 4.8 4.3 4.3 4.1 4.2 4.1 4.1 4.0 5.1 4.5 4.1 4.4 4.9 5.1 5.3 6.3 6.4 6.3 6.9 7.5 7.4 7.9 7.8 7.4 7.5 7.6 7.6 7.5 7.3 6.9 6.8 7.2 7.4 7.6 7.9 8.2 8.2 8.0 7.8
Wind_Speed
24 25 26 26 26 25 25 24 23 23 23 24 23 24 24 24 22 2 5 9 3 3 2 6 2 3 2 2 3 3 4 2 5 7 4 3 5 4 7 9 6 7 6 10 14
25 25 26 26 26 26 26 25 25 23 22 23 24 23 22 21 4 7 11 10 10 3 4 3 3 3 1 1 1 4 4 9 4 5 4 5 7 3 6 4 6 11 13 16 14
24 25 26 27 27 27 27 26 26 25 23 21 22 23 21 16 4 6 4 12 5 2 1 0 2 2 3 2 3 4 4 5 3 3 4 5 6 4 6 8 6 10 11 12 15
25 26 28 29 30 29 29 28 26 25 24 22 19 21 23 2 4 3 2 7 5 3 1 1 1 2 3 5 4 3 2 4 3 5 4 4 4 8 13 6 8 12 10 14 15
27 27 29 30 31 31 30 29 28 26 22 20 17 15 7 2 9 5 4 5 5 3 2 1 2 1 4 4 4 4 3 6 9 19 10 21 16 11 14 9 10 13 17 15 13
30 31 31 31 32 33 32 31 30 27 22 18 13 10 2 4 3 7 3 2 3 3 1 2 1 1 4 2 2 4 6 7 9 9 6 14 5 6 4 6 13 16 15 14 15
30 32 33 34 34 35 34 32 30 27 22 15 7 1 1 13 2 14 5 2 2 4 2 3 1 2 1 1 3 5 7 7 2 4 8 6 9 8 6 7 13 15 13 14 13
33 34 34 35 35 37 37 34 31 24 14 8 4 2 7 6 6 9 1 5 4 4 3 5 1 2 2 2 6 3 5 6 4 5 2 5 4 4 6 9 10 11 11 12 13
33 35 35 37 37 39 40 35 18 5 5 12 4 2 9 9 2 7 6 3 1 1 2 1 1 3 2 2 6 4 6 5 6 5 4 4 7 8 7 8 11 7 8 11 11
34 36 35 36 38 40 41 26 3 4 4 2 1 1 5 4 4 3 5 3 1 2 3 2 4 2 1 5 15 14 6 2 7 5 6 7 7 12 9 8 9 7 6 8 9
35 36 36 37 39 40 18 4 5 3 4 5 3 4 6 8 3 2 1 4 3 4 5 2 4 8 8 4 2 6 12 6 2 3 6 5 14 9 7 7 8 8 7 7 8
35 36 37 38 40 26 5 5 4 4 10 8 14 12 11 3 4 5 4 4 4 5 2 3 7 5 4 5 4 6 10 3 6 4 7 9 7 3 6 5 10 13 11 10 7
36 38 37 37 35 5 4 5 4 2 4 8 5 5 6 9 8 7 8 4 4 6 6 6 5 6 9 5 7 7 17 8 9 8 10 15 4 3 4 3 6 5 7 8 11
37 37 36 37 5 5 4 5 10 4 4 7 4 6 5 8 4 9 8 6 2 9 7 6 6 4 4 11 8 12 7 12 20 8 6 5 5 8 10 7 6 6 8 9 8
38 39 33 23 5 5 5 18 14 1 4 2 3 2 5 10 4 3 4 3 7 6 6 7 6 7 9 11 9 6 8 11 6 6 8 6 3 5 13 9 14 12 10 10 9
39 40 35 4 2 6 17 15 2 6 6 4 4 5 5 3 3 3 4 3 4 4 3 7 3 6 9 6 6 8 12 13 8 4 3 16 8 6 15 25 18 14 14 13 10
43 42 18 2 4 7 14 3 4 4 5 4 3 4 4 5 5 5 6 5 6 3 4 3 5 3 4 6 4 14 13 3 3 4 8 10 6 11 23 18 26 23 17 13 11
44 33 10 4 11 5 4 4 4 4 6 6 3 1 7 7 7 7 5 5 5 3 1 7 4 8 5 7 9 16 12 7 14 9 2 6 8 6 17 17 18 19 17 15 13
38 5 4 8 5 3 1 2 7 4 6 8 11 4 4 5 5 5 8 7 9 11 8 5 6 2 4 4 9 6 11 11 6 1 3 6 4 4 6 16 21 21 18 18 16
8 4 4 15 2 3 1 4 4 2 8 4 4 2 4 4 7 7 8 6 11 11 7 4 3 3 3 4 1 11 13 6 2 10 7 5 7 7 16 21 23 23 21 19 17
4 4 3 24 1 3 3 4 5 5 7 5 4 6 5 5 5 4 5 4 6 6 15 7 3 3 4 6 8 3 7 2 5 4 13 6 9 12 21 24 26 25 24 22 19
4 3 5 8 2 2 1 8 11 8 6 5 3 3 4 7 6 4 6 5 1 7 8 6 5 5 8 1 2 4 7 5 9 12 1 2 6 4 24 28 28 27 24 21 19
5 3 4 3 4 5 7 8 6 12 8 7 5 4 6 3 4 5 5 6 13 3 9 8 4 2 4 3 2 4 4 4 3 3 7 5 3 1 11 14 16 21 21 20 18
4 5 4 4 1 4 8 5 11 9 6 11 9 6 6 5 3 8 11 8 22 6 9 4 5 8 12 5 6 5 4 4 4 3 3 8 5 5 11 16 17 19 21 20 18
4 4 3 4 4 6 5 5 11 9 11 13 4 12 13 5 9 5 9 12 14 12 8 1 8 6 5 9 6 7 8 10 9 7 8 6 9 13 18 21 24 19 20 20 19
2 3 4 4 6 6 4 4 7 11 11 12 10 19 13 6 7 14 10 3 8 9 13 9 5 7 7 8 9 6 9 12 16 7 9 3 6 8 15 8 15 21 23 23 21
1 1 3 5 4 4 3 7 15 14 9 13 15 13 16 13 11 15 17 19 20 20 13 6 4 1 9 4 6 2 14 13 5 8 8 12 7 9 10 17 21 22 25 25 23
Wind_Direction
356 354 353 351 346 344 340 337 335 332 331 328 330 327 328 330 326 284 250 216 184 244 318 307 315 355 15 89 91 141 67 207 205 168 188 86 99 35 40 74 47 23 68 100 95
355 352 349 348 344 343 339 336 332 329 329 328 326 325 325 329 316 265 252 229 211 294 312 5 318 343 13 129 73 94 122 216 212 180 150 87 84 97 70 35 49 68 58 70 72
352 349 347 345 342 341 336 333 329 328 325 325 324 324 322 325 291 252 292 222 162 162 272 132 294 269 179 146 185 152 198 192 222 156 94 96 64 44 117 39 19 94 81 71 69
348 346 345 344 341 338 333 329 325 323 321 320 323 323 320 269 269 258 67 147 156 137 259 193 204 196 179 188 159 157 220 163 147 89 79 61 74 68 59 78 72 77 79 75 66
352 348 344 341 338 334 329 324 321 317 314 313 320 329 341 300 250 298 347 117 125 150 218 239 158 188 207 198 115 161 181 76 87 83 77 85 72 97 66 69 73 79 68 67 68
348 346 343 341 337 331 326 321 318 312 306 305 313 330 334 265 274 22 29 116 163 173 260 202 241 170 271 203 173 165 80 119 89 99 102 102 76 72 39 86 78 74 70 68 66
345 342 340 337 333 329 326 320 313 304 294 292 288 258 298 243 303 326 322 271 190 177 191 225 303 122 298 168 141 125 90 70 9 112 135 119 28 77 99 89 88 82 80 73 63
344 342 338 334 331 328 325 320 313 301 278 257 204 136 248 254 295 308 175 291 240 229 204 258 221 265 179 242 55 79 69 118 195 181 37 88 164 150 121 112 89 87 84 78 63
346 343 339 335 331 327 325 319 325 21 117 144 112 153 268 307 264 251 162 223 231 170 241 291 156 210 138 161 87 334 174 159 157 207 120 74 139 179 146 123 109 98 93 89 79
349 344 340 337 333 328 324 314 246 115 111 173 230 319 275 325 301 268 183 179 203 93 53 114 54 172 297 144 187 186 161 182 154 161 59 83 126 150 141 136 128 119 102 94 91
347 345 342 338 333 329 333 6 12 342 7 223 194 254 283 301 301 296 140 98 94 74 159 220 146 213 212 177 20 213 164 133 70 96 97 113 136 141 132 125 136 132 126 113 100
347 345 341 337 332 333 344 73 58 292 301 243 243 248 253 66 313 296 119 146 145 190 163 46 233 198 199 211 184 136 152 129 67 58 81 118 81 111 150 169 167 157 149 146 134
344 343 340 335 328 27 339 93 300 254 253 285 216 219 201 148 205 254 157 153 166 168 184 172 223 187 179 214 176 179 185 177 145 100 55 114 29 169 211 161 145 158 155 149 149
342 340 340 338 35 332 305 315 326 211 17 276 250 262 173 139 263 213 189 149 174 202 167 225 225 178 212 206 174 202 186 166 139 136 167 218 207 206 193 197 194 177 169 166 155
341 335 337 336 281 309 296 327 323 85 8 228 216 171 172 153 177 213 182 83 175 191 136 235 189 174 207 214 191 196 145 140 151 93 124 203 115 270 166 197 207 189 185 173 167
339 330 330 334 315 263 323 311 42 44 259 312 191 174 137 208 176 123 137 121 179 194 212 234 224 181 202 181 199 132 94 53 51 34 313 197 180 207 186 202 191 190 182 173 169
336 331 332 243 255 321 334 6 48 137 317 274 238 165 183 186 200 155 162 175 176 159 238 257 229 230 161 123 124 129 121 101 167 206 222 175 192 217 201 194 190 185 174 173 167
335 328 317 241 274 324 351 65 111 239 275 328 324 212 188 166 224 181 151 210 241 162 123 179 256 179 188 176 171 169 155 155 196 198 169 106 238 255 182 193 181 180 170 165 168
336 321 320 337 292 128 111 124 207 231 327 334 313 228 246 228 181 150 199 198 203 183 187 190 248 237 171 142 159 205 189 194 95 100 148 205 226 299 186 166 167 176 171 176 174
332 330 296 350 45 39 153 234 261 11 337 327 294 294 260 254 176 173 192 216 219 189 179 227 246 233 148 126 98 186 169 161 202 176 199 242 227 200 155 169 177 176 178 179 178
349 6 279 339 251 66 141 271 290 323 344 350 324 315 322 10 279 222 218 273 201 207 190 193 189 297 148 189 172 141 176 201 152 178 214 215 241 170 177 175 177 184 180 177 177
352 7 313 336 42 3 329 323 337 330 354 289 293 298 332 355 317 294 227 255 89 152 170 194 161 201 217 206 172 161 186 169 195 214 233 191 254 208 174 179 181 181 176 175 175
350 302 320 19 41 25 326 336 350 12 330 328 322 5 6 306 316 306 315 340 16 277 176 181 219 107 347 5 96 198 202 163 107 80 206 174 240 44 170 177 179 173 173 170 170
351 338 329 34 47 10 357 342 343 330 324 337 320 30 351 354 7 305 324 317 334 300 310 268 162 189 217 200 142 165 184 161 149 163 166 228 169 158 165 173 173 174 174 169 170
17 354 18 339 337 341 327 314 339 355 1 8 343 24 12 315 329 19 5 328 324 346 333 37 222 194 232 184 174 174 178 180 197 205 210 184 181 196 185 181 185 170 163 166 173
81 30 346 290 299 346 338 300 338 358 347 322 335 335 337 308 320 301 325 17 278 314 350 340 281 183 213 203 181 181 204 196 215 213 254 173 233 200 192 139 161 173 169 175 175
245 303 122 290 331 346 291 352 324 333 301 340 332 328 324 311 306 294 283 273 260 270 294 290 311 135 231 187 125 292 212 209 198 206 187 220 209 155 168 178 179 178 180 178 176